THOR ABLESTAR DEB, 5265

Orbit data source: Space-Track

THOR ABLESTAR DEB, 5265 is space debris in LEO originally from a launch on Fri, 13 Aug 1965 UTC launched from the Air Force Western Test Range (AFWTR). Debris objects in space refer to the collection of defunct objects orbiting the Earth. Examples of debris include non-operational satellites, rocket bodies, and fragments generated from explosions, collisions, or faulty payload assembly.

Loading next visibility...
Identifier
5265, 1965-065Q
Orbit
LEO
Country
Flag of USUS
Related business
Manufacturer
Unknown
Mission
Spacecraft
Bus & Motor
Unknown
Mass
Unknown
Launch date (UTC)
1965-08-13 (61 years ago)
Launch vehicle
Unknown
Launch site
Air Force Western Test Range (AFWTR)
Object type
Payload
Rocket body
Debris
Shape & HBR
Unknown shape, 0.1 m
Radar Cross Section
Medium (>0.1 m² and <1 m²)

Expand to show TLE details & history
Last TLE update: 21 hours ago

TLE from 21 hours ago
0 THOR ABLESTAR DEB
1  5265U 65065Q   26198.25664484  .00000123  00000-0  20266-3 0  9990
2  5265  90.1341 306.1568 0039258 266.8570 121.1027 13.42516263976658
Epoch: 2026-07-17T06:09Z
TLE epoch observation values (Epoch: 2026-07-17T06:09:34.114Z)
Latitude
28.38434°
Longitude
-81.39378°
Altitude
1,118.722 km
Speed
7.288 km/s
True Right ascension
20h 24m 20s
True Declination
28° 14' 52"
Sunlit
Object was in full shadow at epoch
Visualization orbit readout
Latitude
Unknown
Longitude
Unknown
Altitude
Unknown
Speed
Unknown
Apparent Right ascension
Unknown
Apparent Declination
Unknown
Sunlit
N/A
Visualization observer readout
Local Sidereal Time
15:59:22
Azimuth
Unknown
Elevation
Unknown
Doppler factor
Unknown
Orbital elements
Apogee altitude
1,126.327 km
Perigee altitude
1,067.635 km
Semi-major axis
7,475.118 km
Eccentricity
0.00393
Inclination
90.1341°
RAAN
306.1568°
Arg. of periapsis
266.857°
True anomaly
121.48692°
Mean anomaly
121.1027°
Eccentric anomaly
121.29491°
Mean motion
3.35827 °/min
Orbital period
107.2 mins
BSTAR
0.00020266
Loading maneuver chart data...
Computing Atmospheric mass density...
Loading historical data...
Loading historical data...
Loading historical data...
Loading historical data...
Loading historical data...
Loading historical data...
Loading historical data...

Documentation

Showing up to 5 results
|